GFSMW_con_3kmhel_108.txt.gz
Helicity
72 347 513 579 562 395 359 306 288 281 245 163 105 96 84 44 12 25 38 134 145 144 134 169 192 145 144 158 165 194 154 140 152 204 206 159 64 72 79 78 74 72 60
178 349 527 606 516 379 314 284 250 259 217 156 111 74 118 42 51 62 52 26 123 161 177 162 154 152 158 126 145 186 233 172 185 207 216 218 153 53 44 74 89 85 97
200 279 457 554 468 315 283 240 210 243 214 135 146 110 88 136 50 71 110 68 85 144 195 230 208 167 167 195 167 150 162 193 222 193 223 265 167 141 104 69 71 79 115
187 262 365 418 377 285 270 193 178 214 190 144 136 143 107 77 127 120 74 138 153 156 232 277 241 166 214 182 199 184 202 250 186 273 209 170 108 197 165 85 109 101 105
119 274 392 361 364 318 265 190 171 205 181 145 124 101 71 77 101 52 140 101 221 182 278 301 375 242 217 254 252 288 305 303 270 225 315 246 203 160 149 108 70 58 84
89 373 392 453 372 289 241 217 170 194 194 145 120 85 53 59 46 1 41 153 282 321 301 336 382 299 273 317 391 408 351 302 216 286 284 213 244 182 154 153 98 99 71
117 327 407 389 313 262 215 198 159 169 181 137 85 82 70 57 85 27 108 108 201 395 377 357 425 255 310 357 356 387 283 284 339 221 189 190 136 165 142 131 91 114 116
160 398 391 359 332 230 187 174 157 160 174 158 64 49 52 38 58 52 115 199 271 455 495 411 367 411 410 374 336 314 416 383 317 264 178 126 147 106 183 183 229 154 176
142 356 364 301 269 181 170 154 153 136 144 133 84 60 31 -8 33 118 133 148 196 245 313 451 498 571 534 421 498 394 351 307 234 165 132 104 50 79 95 166 187 153 98
38 91 178 194 196 176 155 135 142 134 133 127 68 60 70 57 51 57 141 186 149 238 390 317 380 492 474 471 403 328 253 155 101 108 102 72 52 64 115 136 187 226 170
124 29 -21 171 195 139 151 150 142 117 116 99 78 56 44 92 87 73 75 83 164 227 278 392 408 395 412 211 207 175 123 89 36 43 31 -20 44 78 101 166 180 171 207
271 12 -22 -26 170 144 129 140 135 98 97 83 66 34 60 46 83 50 58 79 72 82 117 152 169 118 66 112 87 60 60 37 26 15 53 82 92 95 130 177 142 149 155
338 168 3 -17 -45 147 122 115 134 100 91 98 55 31 43 67 50 65 44 62 81 70 62 81 62 53 71 101 60 45 34 81 74 94 91 115 127 128 184 173 196 222 247
449 200 43 20 37 -15 146 114 115 112 94 83 65 57 37 42 45 52 56 61 56 60 49 37 32 39 56 44 39 35 51 91 169 180 195 190 192 190 202 224 232 228 246
127 114 158 2 46 68 33 97 115 138 112 90 67 68 67 57 41 46 49 44 47 38 40 34 18 19 24 25 32 59 87 217 261 286 284 272 291 365 375 315 346 348 359
79 66 58 29 11 35 69 39 73 134 142 127 108 97 125 92 82 45 48 64 73 78 136 157 190 201 168 116 164 267 303 333 358 371 360 337 354 400 497 554 515 387 390
77 67 120 62 17 -11 62 140 88 101 133 151 132 141 143 120 97 88 79 132 240 261 295 306 323 316 301 304 360 402 392 417 432 439 461 501 520 426 347 346 366 532 352
81 46 107 160 126 53 21 145 165 130 117 133 158 140 123 134 131 190 278 311 352 360 354 340 323 349 360 417 471 519 496 542 574 644 562 483 489 399 315 291 339 251 267
47 18 19 82 154 153 114 125 186 149 147 116 126 136 122 238 337 363 380 382 438 426 424 402 395 400 406 433 507 590 637 656 604 522 558 585 546 514 360 259 183 200 308
47 19 -13 7 132 207 232 223 170 164 311 297 292 294 357 392 426 450 462 481 512 530 518 535 496 498 535 506 530 627 640 661 655 614 580 583 391 298 213 162 248 281 262
-0 -10 -39 -32 75 153 130 346 404 393 319 375 457 453 473 468 466 506 539 569 620 676 691 749 719 675 618 627 667 623 625 502 484 464 391 244 235 172 235 283 247 213 207
24 7 -56 -46 63 104 153 195 309 283 315 384 553 564 573 598 645 683 670 729 742 760 743 790 837 814 889 807 747 692 542 309 318 282 268 168 217 294 234 196 240 232 180
10 15 -37 -27 50 164 158 209 260 298 354 470 574 656 708 724 639 736 767 804 768 856 881 930 1000 1099 975 819 682 447 433 449 384 222 184 225 149 152 191 240 251 204 161
-1 29 6 9 53 162 260 289 267 273 359 493 606 709 831 927 1036 1116 1110 1177 1217 1204 1236 1156 1152 1021 960 794 463 289 270 214 218 195 135 142 174 191 168 147 145 132 125
18 46 50 96 91 162 235 287 340 393 515 599 673 784 871 958 1088 1177 1218 1242 1184 1035 979 1023 683 476 515 209 144 136 145 114 80 119 152 179 180 172 150 135 132 115 112
88 120 131 136 160 164 181 223 280 385 547 672 752 826 910 945 1083 1109 1084 973 920 804 457 431 333 195 136 156 139 134 108 117 187 240 213 201 163 144 127 124 123 121 107

GFSMW_con_3kmhel_111.txt.gz
Helicity
-124 -32 76 223 283 470 477 362 295 324 300 269 213 176 157 78 49 -10 54 115 194 231 208 200 178 172 163 140 106 155 177 299 253 260 187 146 99 72 64 31 44 56 65
-48 21 144 294 379 434 464 342 300 345 267 255 221 178 157 81 53 -16 50 87 153 161 149 112 129 143 147 149 159 162 303 276 224 242 253 211 152 70 51 37 38 51 70
60 93 190 268 371 466 488 324 316 309 256 268 282 268 211 161 80 85 74 80 129 142 86 112 142 131 134 115 162 181 217 267 221 218 225 262 173 156 106 43 60 74 84
99 99 161 266 324 426 383 287 310 314 277 252 260 239 217 169 96 100 98 62 100 173 148 76 98 133 191 155 163 195 234 283 237 301 269 233 155 203 179 135 104 83 89
30 102 103 259 338 425 366 292 288 298 279 222 202 215 188 165 168 112 97 112 102 24 94 57 111 150 214 191 224 185 225 276 287 296 361 334 245 214 172 283 131 111 91
52 100 64 247 359 385 276 278 281 261 244 201 176 185 185 160 123 123 128 94 139 139 183 205 192 197 219 248 230 260 267 323 313 320 298 309 320 251 251 304 216 117 104
54 71 49 297 395 372 261 240 263 265 190 177 165 171 171 148 92 78 85 88 136 250 281 253 265 242 303 327 272 319 349 335 319 330 346 305 293 274 245 254 196 101 83
164 132 82 335 397 361 296 217 242 255 179 156 148 138 154 112 50 12 33 62 116 194 445 357 344 286 348 399 387 355 388 450 473 409 369 294 298 203 191 109 85 125 100
344 318 87 232 311 361 282 209 238 206 142 120 151 126 136 76 42 26 48 18 59 229 205 425 398 407 398 436 393 371 469 431 318 286 331 279 223 193 149 163 96 105 81
507 415 118 139 206 246 244 208 202 155 114 96 110 121 124 65 77 63 76 117 173 186 236 343 328 392 402 433 341 373 346 321 418 285 169 188 192 122 106 74 106 112 117
614 431 208 259 153 122 123 233 194 140 102 98 75 85 113 62 71 71 72 113 182 212 336 338 317 471 449 478 360 330 298 322 190 181 156 128 126 97 78 100 86 111 164
637 470 301 305 144 39 69 135 136 121 93 104 81 37 65 80 34 54 72 109 119 142 206 265 360 370 459 416 413 418 305 213 168 138 117 46 75 57 80 91 94 120 128
692 578 342 140 96 72 59 71 87 73 111 122 90 48 40 53 43 32 31 65 94 108 134 198 277 387 380 397 266 133 169 139 107 126 93 85 99 108 115 123 123 128 141
661 577 206 -82 110 79 72 84 54 72 82 123 79 59 41 57 52 56 38 29 54 79 82 103 145 120 177 163 151 120 137 169 164 169 160 156 132 121 125 137 135 156 220
138 409 227 25 109 127 129 110 101 76 85 86 77 41 50 65 71 59 51 31 28 34 50 53 44 45 49 65 91 119 164 200 213 218 217 187 200 276 261 214 253 267 258
81 204 76 154 200 160 143 158 111 127 98 60 44 37 74 88 93 82 67 75 56 45 63 89 90 103 93 79 97 183 231 247 271 290 293 296 322 373 400 437 476 388 312
-12 80 186 205 318 234 176 139 165 110 137 101 79 70 78 99 108 109 104 112 154 165 177 181 182 163 122 151 267 323 317 355 375 413 432 425 375 379 425 443 471 512 417
8 23 27 16 90 98 127 25 139 182 120 122 125 116 106 110 123 167 222 238 244 251 246 240 237 262 264 287 379 446 437 482 517 503 503 505 488 461 514 470 438 431 394
5 18 -33 -35 29 88 52 74 105 160 123 49 55 119 149 193 243 289 296 287 311 310 299 269 264 275 305 350 429 509 528 593 634 614 581 612 594 526 361 357 330 416 344
17 17 18 -5 -1 75 120 187 192 195 86 90 114 133 227 293 289 304 330 354 364 364 356 365 341 350 398 445 513 568 604 703 741 768 723 681 552 480 400 362 324 281 256
51 71 49 17 5 54 68 189 271 283 211 291 354 301 302 322 341 359 345 375 425 458 449 449 418 435 445 523 625 722 827 827 828 829 816 690 517 465 466 386 312 163 148
31 24 29 48 62 40 70 119 230 245 236 334 379 456 368 350 396 464 478 522 559 609 601 658 660 619 615 617 658 708 707 694 740 733 563 476 335 298 277 244 220 211 181
19 7 22 52 84 124 102 158 184 183 252 312 356 421 404 426 409 518 542 614 646 722 730 742 770 814 882 866 823 794 669 742 767 475 273 274 208 196 226 240 247 211 185
36 19 45 82 98 130 164 168 217 197 273 384 465 560 633 691 707 746 735 721 657 704 843 858 930 967 1006 960 853 720 574 549 359 239 157 157 159 181 178 198 224 144 92
24 56 78 89 110 114 179 204 212 281 369 464 508 597 689 761 839 900 903 1009 976 1022 1206 1153 895 781 768 516 430 344 148 145 154 183 162 142 151 174 162 102 82 96 88
23 47 91 92 97 131 157 180 205 239 308 407 457 506 589 675 778 882 1000 858 708 835 860 690 380 415 220 258 209 185 160 146 157 173 145 160 138 110 82 92 91 94 94

GFSMW_con_3kmhel_114.txt.gz
Helicity
84 113 64 -42 62 147 202 284 371 359 384 363 271 250 194 143 96 100 133 169 141 71 382 476 313 233 235 251 286 251 233 263 214 262 206 177 114 96 83 75 46 30 37
140 98 87 30 109 140 181 265 386 403 348 313 242 279 206 156 101 84 157 136 102 276 488 379 276 209 215 260 286 280 317 252 192 193 242 186 172 113 75 61 37 20 31
94 116 101 107 114 142 180 266 407 404 340 262 268 275 233 206 175 136 131 118 116 184 229 246 234 201 217 223 251 266 217 273 198 154 184 237 188 170 106 41 44 89 26
87 89 141 223 204 179 203 269 335 353 310 289 261 283 233 218 160 137 102 17 83 131 150 170 188 178 197 210 244 239 260 338 260 224 248 185 139 199 168 100 60 64 80
85 88 78 186 220 222 258 284 281 292 276 265 258 276 232 180 157 155 142 115 71 67 179 208 139 147 161 198 236 238 245 334 311 330 332 295 233 177 191 151 128 140 120
-3 79 41 65 133 202 253 271 268 269 258 251 238 280 259 225 175 148 149 127 159 131 96 148 158 108 125 167 229 235 254 302 278 343 325 305 266 221 236 236 312 195 138
14 35 104 41 153 133 175 242 260 283 269 253 200 242 215 225 182 151 121 148 93 142 136 102 103 153 152 183 224 266 296 287 266 306 331 317 259 237 266 318 344 373 272
18 28 102 76 105 133 116 245 238 260 282 271 215 203 172 193 153 142 135 97 132 166 122 109 137 196 177 208 232 287 295 318 312 299 349 393 372 361 409 370 347 317 192
41 -21 -10 132 48 106 108 188 206 230 268 270 229 175 140 143 132 119 66 69 86 89 94 131 174 252 206 265 276 342 416 401 279 326 305 412 493 388 376 235 243 212 109
-95 15 29 43 153 114 126 166 155 137 219 238 206 149 108 98 87 61 24 26 41 96 78 96 188 409 325 342 364 380 470 490 408 298 284 274 426 329 256 209 206 132 116
-92 37 117 120 231 100 178 192 187 129 104 162 170 117 85 83 69 21 26 -18 10 76 101 161 304 344 561 400 378 375 360 435 391 326 271 325 322 275 171 180 128 100 86
-28 5 105 218 168 175 236 192 184 141 104 124 124 88 84 89 77 43 61 40 32 114 140 151 176 237 470 419 430 401 475 355 345 289 275 322 105 115 177 128 93 79 93
-45 169 360 325 222 228 276 203 144 115 97 129 117 88 72 84 62 38 52 55 35 73 104 173 242 192 186 332 458 399 346 293 258 300 291 164 137 161 161 142 138 139 144
-77 -19 417 213 146 238 282 171 142 125 102 113 94 99 70 74 58 39 41 49 44 39 82 132 200 236 316 284 393 295 279 463 405 360 276 254 176 159 149 152 163 181 209
-151 -77 235 351 281 171 189 204 131 100 117 111 78 88 75 78 79 54 37 41 49 39 41 68 76 160 251 355 342 295 323 269 319 320 309 248 232 266 249 197 202 216 236
-114 -102 80 320 340 204 221 217 148 120 124 111 96 111 85 88 71 63 57 48 43 65 72 65 74 103 108 83 131 161 258 292 312 329 319 269 254 311 360 393 465 354 287
-50 -39 17 275 328 211 262 288 176 130 127 106 90 104 94 91 91 91 88 82 128 136 145 153 138 116 80 106 189 241 282 297 268 259 284 311 313 330 360 427 482 544 523
-9 -3 -59 -19 43 51 125 211 255 188 125 107 93 93 89 87 105 132 189 198 214 211 193 191 189 190 187 213 309 365 356 396 392 395 391 394 382 361 369 462 488 483 474
15 -20 -22 -21 -13 -19 42 133 201 203 176 103 116 105 92 123 197 215 221 220 242 274 284 243 239 246 259 311 388 462 458 499 496 465 445 442 423 455 454 445 469 492 445
23 -8 -3 -16 -2 6 16 43 209 147 216 92 55 82 142 149 176 220 259 281 304 312 306 329 325 320 326 331 360 448 506 565 589 604 648 639 593 581 555 462 474 444 408
13 -0 -9 -28 -9 41 53 26 172 206 218 190 257 198 159 201 229 258 280 309 322 350 371 398 378 364 323 350 439 499 576 656 729 727 706 693 711 652 681 681 560 387 187
9 -16 -22 -23 -7 37 54 60 129 186 176 260 279 306 300 319 329 382 361 387 412 444 435 449 440 410 385 377 483 656 786 801 843 790 729 686 666 662 629 497 262 181 146
12 -5 -20 -4 19 44 96 93 110 143 241 284 338 309 353 429 384 446 479 484 516 564 518 520 560 571 564 551 602 624 596 649 656 520 490 522 362 285 209 200 210 153 127
13 -15 2 27 31 62 82 130 141 135 248 375 427 450 416 448 426 412 445 511 453 596 621 594 662 679 622 607 606 651 625 691 523 534 354 248 242 243 206 188 197 190 167
14 13 22 43 61 75 101 124 147 173 233 302 409 455 523 550 541 433 417 520 566 640 660 696 597 691 654 605 556 627 405 347 308 227 217 234 209 192 171 177 174 144 126
7 19 53 68 76 80 109 133 125 167 244 288 305 372 475 528 584 647 691 605 409 458 529 448 582 489 357 450 368 264 275 196 184 187 155 154 146 152 147 141 133 122 123

GFSMW_con_3kmhel_120.txt.gz
Helicity
97 77 101 91 96 88 83 55 79 99 74 109 188 281 266 310 277 256 194 242 181 186 191 247 290 357 424 346 239 199 108 63 94 209 176 134 96 88 80 57 41 50 44
84 111 127 111 92 90 79 56 65 74 51 107 183 177 207 196 200 216 215 241 170 154 167 203 296 414 405 533 226 235 164 119 148 148 190 218 150 106 79 69 50 43 47
84 95 120 100 87 101 98 53 50 45 29 63 131 137 174 189 208 216 243 226 127 106 161 222 309 356 517 500 307 254 192 179 170 136 159 203 182 121 86 66 46 48 49
70 70 74 94 69 102 85 51 24 32 37 54 110 109 161 213 175 180 238 198 145 135 122 153 169 408 464 417 452 313 266 187 202 163 116 98 121 164 157 87 43 48 48
45 42 44 70 71 71 82 64 28 13 38 79 68 101 111 123 128 194 196 175 209 115 83 145 221 229 408 414 371 328 255 223 242 240 206 163 194 71 90 117 69 56 62
51 48 51 44 66 53 54 56 52 14 39 74 71 99 111 106 113 162 160 184 220 164 181 251 308 243 384 288 339 342 246 203 207 217 219 189 166 157 114 133 107 79 97
67 58 58 56 55 77 62 43 4 22 53 84 93 107 114 83 87 113 123 165 211 185 180 200 256 329 373 358 334 274 224 190 193 212 205 155 120 105 104 115 93 85 201
46 37 25 26 31 53 63 25 8 -24 31 109 112 109 105 104 92 109 111 139 182 158 157 175 222 275 306 297 313 254 221 162 184 145 196 171 120 127 120 135 148 158 164
42 15 2 -7 14 11 49 21 -5 21 29 76 121 121 96 73 85 119 86 138 135 122 116 146 173 162 194 238 245 291 161 177 188 193 206 176 141 171 156 170 159 218 351
43 14 -11 -11 0 -1 -18 62 -3 28 45 56 96 103 85 87 106 139 115 127 146 105 77 149 163 144 163 186 250 186 128 156 159 201 174 194 224 260 286 253 237 280 290
18 5 0 -10 -5 -19 -3 8 66 43 39 70 102 66 104 87 94 131 126 112 122 73 70 128 124 173 177 164 178 149 148 117 142 162 169 207 273 380 371 371 356 303 305
-15 7 -10 -22 -14 -35 -21 46 55 104 69 89 104 87 112 85 87 111 128 106 91 47 30 43 65 158 197 201 195 222 232 112 111 171 210 251 336 389 410 393 478 450 301
-23 10 2 -11 -29 -38 19 37 86 154 152 110 114 121 111 93 74 98 113 98 100 67 53 44 40 47 118 172 230 198 197 226 186 211 242 337 396 455 433 444 469 413 277
-12 11 2 5 -12 -44 27 58 125 110 122 167 130 141 101 87 67 85 120 97 94 60 59 62 44 46 98 100 222 297 235 261 351 362 392 448 514 334 397 365 272 231 235
9 24 45 40 23 5 19 110 138 82 181 219 149 132 107 91 74 93 131 112 85 53 65 79 74 89 118 116 204 289 308 289 480 670 649 566 542 437 376 261 311 337 423
66 75 87 63 36 -3 14 108 103 153 164 146 156 108 103 86 73 106 131 108 84 66 74 84 123 148 96 198 256 403 478 555 720 811 809 712 671 637 619 631 657 463 312
106 101 95 59 30 1 17 91 89 162 138 194 170 111 79 87 71 107 126 125 118 108 120 131 133 172 181 382 410 380 469 619 532 524 570 526 471 522 577 597 585 566 500
106 90 58 34 14 11 9 22 99 204 197 225 157 116 100 100 67 104 160 204 188 157 153 159 156 181 182 331 432 514 443 482 472 485 498 461 372 341 423 530 575 530 527
86 47 15 -4 6 16 16 28 103 113 233 213 166 152 114 116 115 208 230 219 255 224 196 176 186 202 192 241 392 447 443 411 401 347 340 394 362 319 345 444 489 524 535
51 42 9 -6 -9 9 22 26 -1 94 123 220 252 179 134 164 196 247 287 296 306 287 258 263 235 233 252 268 327 367 377 416 403 385 395 408 396 392 361 386 408 476 406
48 34 7 -17 -28 8 11 7 20 67 72 148 251 169 204 276 265 287 308 336 364 376 358 364 318 303 287 310 344 366 397 401 435 451 449 422 409 436 455 419 352 335 375
38 22 -18 -36 -39 16 16 12 37 49 110 38 137 351 328 329 322 350 358 376 419 448 440 452 439 404 374 353 390 469 523 511 587 567 560 533 543 597 656 551 484 477 406
23 22 6 -10 -35 16 31 47 64 68 48 52 247 418 459 382 359 388 412 442 430 453 455 484 479 454 413 413 435 549 651 689 746 690 688 649 625 636 575 440 309 271 252
17 10 15 -5 0 27 57 71 77 62 104 72 206 192 434 573 437 477 469 460 441 466 484 494 505 497 426 397 421 523 624 682 708 691 620 546 494 462 389 357 345 306 242
11 -4 -13 -25 -6 30 64 85 96 77 81 165 111 282 262 356 536 562 534 578 545 544 590 536 519 502 488 405 411 489 520 487 440 475 444 420 378 358 337 299 261 227 210
-2 -13 -26 -26 -16 21 60 87 111 81 56 126 193 178 282 381 385 484 554 497 351 468 379 379 373 453 306 319 337 375 408 413 418 456 414 344 283 267 241 227 218 200 196

GFSMW_con_3kmhel_126.txt.gz
Helicity
77 52 84 131 135 119 147 100 95 86 104 190 277 276 303 210 174 157 116 192 183 174 196 279 316 349 404 386 305 184 130 115 68 113 101 172 184 94 70 127 90 67 79
81 43 141 188 207 183 177 109 86 74 102 122 182 239 219 231 211 162 85 84 156 154 207 301 330 335 399 396 310 326 251 177 190 222 189 231 198 180 79 132 108 131 88
65 108 228 191 176 86 131 104 62 50 79 101 119 194 283 346 291 198 134 79 158 215 245 285 299 341 364 357 309 312 274 282 210 208 258 338 311 196 117 111 110 152 108
179 195 159 115 107 161 100 80 95 89 81 101 94 265 294 304 247 156 140 129 142 167 182 228 303 324 350 308 296 282 295 293 307 279 244 287 369 349 233 122 106 111 126
172 191 161 205 146 123 40 62 84 92 124 151 133 148 200 171 153 128 106 130 90 137 171 212 261 305 330 333 323 298 336 250 306 374 360 214 254 245 279 187 114 137 131
243 262 160 91 83 60 62 69 51 59 78 91 107 152 162 126 104 85 91 124 124 139 145 165 253 308 256 283 303 285 340 338 330 407 279 229 276 187 242 220 113 163 130
160 159 91 86 96 57 26 52 95 64 71 51 62 86 106 83 57 74 97 138 143 155 158 208 276 294 269 234 272 342 385 432 396 305 296 189 191 181 200 188 169 181 171
176 66 81 77 64 42 16 2 61 138 51 38 51 62 66 66 48 118 130 143 168 158 173 207 262 276 248 181 196 185 289 303 347 330 398 269 95 169 212 161 149 164 139
142 33 81 33 45 43 32 12 29 69 112 -11 51 70 60 62 76 115 95 125 176 152 154 203 203 196 180 166 165 180 246 320 385 412 425 174 86 193 127 162 192 192 231
122 102 78 61 44 43 43 7 -11 46 57 93 54 73 67 37 84 115 132 133 146 152 180 211 190 206 184 164 138 151 217 305 315 475 193 84 181 210 228 244 197 251 278
136 151 59 51 61 78 37 21 7 -14 38 41 62 68 85 50 64 128 100 110 149 172 182 197 178 194 173 144 151 155 228 257 333 274 241 293 260 130 294 260 275 306 352
118 85 75 49 20 43 31 54 39 2 -10 25 46 73 72 100 66 83 105 116 169 180 175 192 172 179 145 141 115 139 178 245 329 335 425 477 331 233 216 314 327 341 488
83 89 79 60 42 42 132 98 15 9 -11 5 24 55 74 87 89 67 130 124 164 167 186 185 186 179 162 145 130 125 129 168 233 326 406 431 236 174 121 213 287 330 387
82 89 66 35 118 195 178 91 6 -22 -8 -10 7 44 64 72 85 92 117 142 165 178 146 164 154 178 180 177 170 154 150 126 199 275 269 205 180 166 209 234 207 291 392
85 68 56 102 164 168 150 85 31 4 -7 -7 -8 46 43 75 90 108 102 151 160 162 148 162 148 148 187 181 156 143 166 195 233 318 388 366 275 192 181 263 305 438 514
49 49 125 174 161 97 63 58 51 22 13 2 -6 8 92 70 91 113 163 148 140 172 188 197 191 211 257 247 155 146 160 166 215 294 399 357 420 404 523 564 608 437 436
79 199 248 251 210 160 136 68 50 24 22 21 8 10 91 61 73 93 174 144 140 255 268 248 233 229 202 136 175 233 265 264 462 493 560 631 545 652 716 918 880 691 512
245 288 285 274 224 177 107 52 46 35 31 32 14 19 65 107 91 95 160 231 260 286 264 247 223 213 205 215 318 334 323 360 464 579 674 730 705 834 880 980 937 866 700
235 237 223 214 157 134 91 49 41 39 36 35 3 23 44 119 86 129 347 328 338 305 294 250 218 208 220 235 297 352 359 368 420 456 559 742 898 792 871 1109 1086 900 711
173 126 112 111 110 88 59 50 41 34 44 40 26 13 17 103 40 84 424 403 372 342 327 311 256 224 228 215 265 306 320 409 375 382 441 448 478 567 435 488 564 617 445
106 75 88 64 43 25 29 33 40 43 49 49 39 27 34 53 52 35 430 464 423 407 368 363 339 293 254 226 245 259 344 365 352 350 335 336 371 428 454 468 470 499 493
68 103 89 64 34 14 17 35 33 66 57 61 66 65 35 20 2 138 446 473 437 442 388 403 409 363 326 278 274 323 346 336 434 387 355 313 321 363 426 487 489 498 491
43 67 58 72 66 28 10 14 28 49 60 76 90 78 34 35 210 225 453 467 424 451 408 422 413 388 351 345 341 405 441 475 513 436 373 399 441 485 546 454 405 431 426
18 33 48 49 39 26 15 10 12 43 67 74 104 86 45 80 217 325 307 465 423 439 445 452 459 447 432 422 447 493 551 584 610 549 537 542 551 548 475 442 447 446 420
30 26 26 33 46 48 26 25 27 68 66 59 89 101 95 116 220 341 405 492 622 443 430 450 462 493 472 418 461 562 635 646 649 644 694 673 625 578 515 464 427 410 398
38 22 18 37 37 13 -6 -10 58 73 74 65 71 95 124 160 209 264 266 384 635 559 582 540 585 506 511 516 555 590 577 610 602 709 717 634 558 521 473 432 387 343 314

GFSMW_con_3kmhel_132.txt.gz
Helicity
53 134 25 211 321 332 335 293 305 262 315 305 287 257 216 214 200 188 138 175 179 207 272 288 296 299 290 252 234 242 267 273 216 214 100 115 170 146 131 148 127 105 104
46 110 23 270 419 405 424 436 377 304 264 295 244 224 233 211 229 233 185 186 175 196 270 283 262 311 309 313 261 267 292 253 249 222 149 161 192 191 142 140 126 116 114
-26 -40 44 203 447 453 419 403 345 314 298 230 224 242 266 251 263 274 241 211 195 213 207 242 255 285 329 325 308 285 313 301 233 197 212 252 196 210 211 154 119 90 99
-22 69 150 168 258 388 376 360 320 269 254 195 167 190 228 200 175 206 209 187 156 166 213 208 228 282 319 296 296 287 286 298 274 250 116 171 302 327 326 235 140 125 104
69 133 215 284 260 303 340 303 270 276 110 87 112 151 191 185 170 220 223 185 129 131 171 203 160 219 254 263 290 296 309 313 307 339 227 154 257 198 377 447 258 169 112
118 205 335 311 387 382 403 332 298 272 170 175 198 174 174 113 115 148 157 174 157 155 153 160 155 174 232 276 288 285 285 330 303 282 234 270 268 328 393 404 318 203 152
111 405 394 405 310 326 321 322 216 274 217 240 198 131 107 78 50 81 104 129 148 165 166 149 137 183 180 250 253 266 271 274 287 286 267 287 221 344 319 404 440 321 235
176 476 387 362 352 245 245 218 207 170 151 132 112 82 54 48 71 53 95 98 89 105 116 105 146 167 164 195 233 258 254 245 254 271 243 246 193 377 503 434 508 419 330
364 375 319 266 222 227 136 74 130 167 131 65 48 35 43 65 65 64 65 46 86 116 131 145 160 169 163 183 206 231 248 240 231 223 219 266 238 416 575 455 552 423 380
458 318 246 197 221 128 112 126 109 145 62 46 23 10 -3 20 35 63 61 30 53 125 124 138 145 162 176 170 199 194 209 233 229 186 178 220 220 426 560 595 587 355 349
504 520 157 71 149 194 136 96 172 92 62 51 33 19 9 -0 5 39 50 43 43 114 103 113 135 157 168 183 180 197 240 256 226 186 150 209 210 382 724 531 627 432 324
517 491 169 234 264 156 129 159 118 90 50 12 24 11 10 7 9 19 64 73 58 73 76 144 139 161 169 204 211 219 232 196 167 112 101 142 213 260 442 446 446 413 297
353 439 184 238 256 226 160 110 73 27 -3 -0 -17 -24 -14 -4 13 18 43 83 65 14 112 141 157 155 163 183 179 167 166 156 114 83 127 129 162 153 467 518 525 445 429
16 134 153 140 182 171 107 66 29 14 -11 -42 -51 -40 -22 -18 -20 8 21 58 87 51 48 147 139 155 156 162 177 139 153 140 107 86 109 117 179 262 422 348 569 390 468
135 154 127 52 53 54 31 14 2 -14 -75 -96 -69 -42 -16 -12 -22 -7 9 38 77 91 18 133 190 165 156 153 173 139 137 134 114 117 88 112 124 147 265 501 472 545 612
87 96 74 42 -9 -20 -51 -46 -45 -65 -107 -109 -80 -40 -20 -8 6 -2 15 25 79 120 79 121 221 202 179 119 153 166 162 134 120 117 94 93 114 146 220 331 619 454 501
28 32 -0 -36 -62 -90 -75 -79 -85 -72 -79 -90 -77 -27 8 15 15 16 19 17 79 94 114 98 184 278 186 132 116 141 178 154 132 128 102 119 135 152 297 321 592 490 398
-15 -16 -30 -95 -135 -129 -109 -97 -93 -66 -39 -16 -28 -28 16 43 23 20 24 22 45 65 85 111 203 221 238 167 125 172 253 250 225 183 154 135 157 238 368 578 919 858 691
-25 -39 -38 -90 -90 -80 -55 -26 22 3 -17 -19 -3 11 52 45 17 22 25 15 50 70 -45 131 343 329 262 181 217 292 328 316 259 192 181 138 213 262 395 726 728 990 890
41 38 33 -0 -38 -45 -27 -36 -21 -14 -1 12 23 39 38 35 10 19 20 8 49 56 41 66 341 332 289 232 259 300 339 349 286 259 214 194 240 389 415 603 823 842 813
-9 3 4 9 14 -26 -40 -30 -17 -1 42 27 26 26 39 31 10 5 15 29 34 47 86 58 184 434 321 268 241 258 309 304 304 284 247 201 248 394 479 520 736 929 1107
-40 -23 -17 -17 -13 -9 -4 3 23 26 38 57 55 46 47 39 8 2 -7 33 32 48 109 128 200 316 326 298 263 261 294 287 328 312 296 286 330 395 507 613 736 873 795
-18 -13 -1 9 4 -4 -6 13 48 63 66 43 49 49 46 40 -15 -21 -8 20 31 52 102 182 234 258 386 355 291 278 327 340 383 326 304 352 417 516 557 516 519 681 683
34 37 42 50 57 51 32 12 27 18 22 45 39 49 53 71 -3 -17 21 47 37 62 94 143 218 351 294 389 404 369 399 399 441 442 444 412 422 462 480 587 597 532 526
13 20 34 37 33 25 15 13 26 19 28 49 69 64 69 89 12 29 2 20 35 24 95 165 209 266 281 309 296 380 413 446 431 437 422 440 442 498 486 444 411 427 429
14 21 26 24 29 35 33 16 11 -11 -12 1 23 40 50 90 57 20 3 85 81 60 153 196 255 241 145 206 247 358 413 390 411 462 460 465 481 484 492 487 489 478 494

GFSMW_con_3kmhel_135.txt.gz
Helicity
81 4 -17 -3 54 167 220 254 293 302 359 375 373 324 320 253 242 207 173 174 152 146 165 196 211 215 224 231 246 243 226 228 248 291 201 224 178 161 127 129 117 99 91
85 8 -26 -11 29 99 196 342 285 334 349 347 362 337 318 246 198 216 205 187 187 192 161 186 225 250 237 228 255 241 261 256 265 263 250 197 166 144 75 91 98 101 103
103 54 19 -47 49 206 292 397 427 389 362 315 359 343 350 309 280 235 217 239 235 214 191 209 247 267 246 233 256 232 264 285 283 278 284 309 242 204 150 119 140 122 114
63 53 89 55 104 199 316 357 391 353 307 283 305 289 236 206 173 176 159 192 249 252 223 239 223 231 230 168 188 259 265 272 268 334 235 221 250 226 210 157 160 197 117
31 46 154 193 249 252 265 314 340 373 378 346 321 256 175 160 175 188 182 205 192 237 216 220 222 216 206 191 189 261 248 255 296 311 291 220 294 200 268 262 288 207 158
156 107 161 315 342 403 376 344 349 389 385 333 265 235 165 134 153 156 163 162 149 173 173 162 198 214 213 194 200 213 242 244 274 280 289 294 392 351 315 292 277 326 248
-25 93 117 307 347 417 470 364 266 245 131 118 195 179 158 145 72 75 93 102 111 120 134 160 161 193 178 173 168 185 206 242 253 322 313 302 275 285 324 267 275 400 435
25 99 134 336 461 446 417 330 326 222 224 305 160 159 233 168 93 74 70 76 100 113 112 138 176 194 149 128 178 207 196 220 214 270 312 278 303 234 284 355 406 392 422
273 164 268 435 421 457 419 295 340 406 275 284 316 297 213 110 71 65 59 60 65 90 124 129 114 144 130 157 171 173 203 240 220 257 277 269 222 230 266 289 375 479 390
499 351 403 508 470 441 394 371 385 316 293 248 202 155 108 82 67 46 55 61 57 61 74 114 139 152 155 156 167 177 171 190 233 240 231 236 202 217 203 332 433 436 358
615 470 354 511 491 416 456 415 398 251 145 118 116 118 106 55 38 16 29 63 59 55 57 63 114 130 152 165 182 160 145 172 207 219 225 225 205 210 202 334 488 499 551
613 524 398 611 504 451 410 382 308 166 152 106 104 116 67 64 46 51 63 48 74 91 58 60 122 110 137 146 145 127 146 175 183 205 187 196 192 151 168 257 561 482 791
96 204 461 447 335 307 241 190 172 185 151 68 90 115 66 47 59 70 26 31 52 71 114 69 80 118 147 153 114 129 152 170 179 194 228 221 188 135 159 180 249 526 523
132 268 67 96 83 109 104 109 66 48 63 52 55 38 37 46 43 32 41 21 18 40 72 107 79 64 146 156 137 140 165 183 198 213 204 179 126 94 139 180 275 537 625
44 85 80 44 84 52 6 4 0 -17 -33 -26 -15 -1 3 5 10 13 29 33 29 30 62 102 98 105 158 184 178 168 158 158 151 162 168 158 128 94 88 117 206 373 634
44 21 3 -14 -8 -29 -11 -53 -62 -75 -104 -78 -42 -18 -9 6 31 41 40 46 33 33 52 65 145 102 127 167 169 204 171 157 149 148 168 166 126 99 93 103 146 542 714
0 -8 -9 -29 -53 -46 -31 -86 -90 -63 -51 -74 -77 -49 -6 11 40 39 42 55 58 40 45 64 100 110 112 166 180 183 186 162 153 156 179 171 175 127 106 89 128 198 565
-27 -36 -50 -40 -31 -56 -60 -30 -42 -72 -75 -65 -42 -11 27 43 39 38 46 43 63 44 30 54 87 113 116 143 153 185 211 183 179 204 197 163 168 129 108 172 234 322 413
-22 -28 -25 -31 -24 -22 -20 -30 -23 -31 -44 -5 40 41 38 44 43 49 43 41 67 67 42 29 68 60 67 103 210 281 259 242 241 218 204 166 179 149 153 239 310 407 559
7 8 -2 1 7 8 10 6 13 13 34 37 22 13 28 28 35 38 39 33 50 56 54 11 25 51 50 113 115 252 288 295 257 252 219 195 169 152 196 231 308 426 499
-24 -10 -5 -23 -18 -16 -16 -16 -16 -3 17 30 32 18 11 10 4 26 37 20 18 59 35 -3 28 53 90 180 230 180 291 304 296 257 230 221 188 210 226 272 278 434 648
-16 -5 -1 3 2 5 -4 10 6 31 20 6 10 25 15 6 3 15 30 50 33 19 32 -10 33 52 70 96 138 192 276 325 333 296 278 245 248 264 309 370 455 615 716
-10 -5 14 34 36 38 25 36 58 53 39 38 29 30 43 33 34 29 43 40 69 20 27 -6 15 78 69 153 144 140 195 332 401 338 305 290 298 341 377 416 520 599 640
14 12 11 26 47 38 15 -8 6 28 24 40 59 51 47 78 103 91 86 76 56 41 29 34 31 83 129 115 232 250 264 345 491 503 494 409 402 400 440 526 585 527 521
-22 -20 -17 6 28 35 20 2 -12 -15 -6 -7 3 50 57 57 80 88 85 91 86 41 45 64 82 100 117 139 167 196 289 339 425 502 434 379 377 400 420 440 440 446 488
-15 -13 -15 -7 8 14 21 23 17 -2 -14 -13 -8 12 35 44 48 66 112 76 89 152 126 101 123 146 125 133 133 158 226 277 320 408 398 403 380 411 414 415 418 416 446

GFSMW_con_3kmhel_138.txt.gz
Helicity
79 99 119 111 99 58 69 86 122 229 308 309 343 310 325 282 245 221 186 169 162 178 180 203 212 197 193 199 204 207 194 262 236 278 235 178 133 134 161 184 147 98 113
77 83 102 89 91 78 52 73 113 211 276 342 305 329 323 291 261 236 190 181 158 158 185 148 186 187 172 199 245 282 277 245 230 281 284 224 181 152 150 158 146 88 117
90 137 111 71 54 74 58 95 114 196 277 302 345 441 387 291 272 239 199 193 196 189 183 163 192 196 191 189 276 284 255 264 232 251 288 247 205 212 158 142 123 72 72
89 38 19 62 97 70 71 130 176 225 316 329 276 368 372 318 237 195 210 143 157 174 166 179 211 220 264 228 245 257 226 246 228 239 249 283 270 207 153 147 134 125 105
52 77 97 105 142 170 174 211 258 304 264 256 242 204 174 221 314 281 198 193 161 179 165 215 233 269 291 218 220 243 190 242 257 273 308 348 317 290 181 150 161 138 107
82 50 51 78 170 249 321 311 350 333 280 302 318 328 311 269 215 231 181 201 194 204 171 198 212 223 211 217 224 216 181 197 219 258 252 326 387 366 315 243 189 168 197
77 80 60 39 181 276 364 371 376 432 383 390 335 176 222 177 156 158 140 173 214 183 126 141 146 181 187 189 202 213 195 178 195 265 241 263 299 342 323 261 293 221 278
80 143 90 57 238 305 412 481 450 479 478 446 363 184 154 119 131 143 140 193 165 122 102 126 118 136 168 167 188 232 193 178 152 181 222 258 250 285 324 314 374 342 283
135 193 64 369 522 519 502 469 468 450 584 544 432 438 235 210 158 150 165 169 133 99 87 112 117 120 150 161 191 216 156 159 133 169 217 245 241 293 329 333 336 318 244
141 414 262 484 701 755 723 633 583 434 392 419 335 353 269 256 276 218 172 136 118 81 69 89 106 118 111 140 178 186 171 130 142 136 166 203 245 271 314 283 324 282 281
78 393 521 881 765 787 732 696 658 562 487 437 214 307 336 342 188 118 103 85 75 70 60 65 88 101 117 132 181 177 185 135 129 155 183 173 217 272 286 258 248 273 286
63 166 460 205 669 840 779 562 519 493 415 292 261 235 189 164 136 124 109 78 74 61 56 72 67 105 118 115 145 170 183 169 148 203 155 157 233 205 228 272 242 243 286
82 -13 134 274 93 613 609 527 374 418 325 239 172 111 119 105 126 103 60 63 74 84 75 64 74 98 118 133 151 168 158 179 172 184 129 144 211 197 234 249 226 232 316
42 24 -31 10 -64 145 352 622 351 208 214 148 103 81 64 62 76 75 71 83 73 74 72 67 67 68 103 118 112 154 170 155 162 150 132 154 181 188 225 224 220 192 266
27 20 -10 -24 -35 2 49 273 300 131 91 88 55 34 28 35 45 59 56 55 55 79 86 75 65 75 85 102 106 139 164 159 158 151 170 191 207 217 227 202 156 145 184
-20 1 -23 -28 -26 -3 -32 -36 16 8 -19 -4 23 29 38 44 46 33 28 48 66 65 67 88 82 82 60 109 97 138 148 167 172 172 179 189 171 149 136 162 150 183 308
-66 -28 -29 -2 -27 -6 36 14 7 -20 -52 -40 -2 28 45 51 48 42 47 57 61 47 40 61 86 80 69 83 107 115 212 176 177 189 206 196 185 150 160 128 120 127 230
-50 -36 -11 8 5 18 24 35 7 -5 3 -6 12 15 20 11 25 31 39 73 70 46 33 51 87 91 61 92 113 120 202 173 206 234 210 168 152 147 157 143 158 184 186
-30 -41 -39 -9 1 11 15 9 5 -3 -28 -26 -15 14 11 43 51 48 49 64 81 78 45 51 70 96 66 90 72 71 150 230 249 235 173 162 135 129 141 176 178 203 258
-12 -22 -25 -34 -23 -5 9 -1 -1 10 30 31 21 -6 14 27 44 37 50 63 65 72 58 34 46 63 52 59 69 34 102 219 289 311 279 177 150 129 147 183 213 193 173
-1 -2 -18 -15 -14 2 20 25 18 26 40 7 -0 1 7 24 28 43 46 55 67 62 62 48 22 40 55 55 55 75 89 153 265 313 263 227 160 155 175 203 235 183 282
3 9 -10 1 -8 -8 -8 13 27 46 42 36 20 2 -24 -34 -15 9 36 53 59 75 60 64 26 20 43 56 58 78 78 106 190 188 246 226 195 235 261 287 275 325 366
-39 -28 -19 1 -6 4 -6 22 40 47 40 23 19 20 31 9 -3 -12 -0 36 70 62 73 55 46 19 51 57 76 53 54 141 199 221 244 294 291 310 326 302 311 330 351
-33 -37 -34 -27 -11 -9 -11 -10 6 33 33 36 44 42 31 35 45 46 29 34 57 91 91 80 60 60 70 90 85 69 56 116 214 231 397 398 412 377 371 390 385 313 350
-7 -4 -6 2 3 -5 -16 -11 -7 7 13 10 -2 3 15 18 41 81 63 75 83 97 112 104 85 98 100 127 89 102 122 218 313 370 352 353 341 352 348 346 354 358 405
-13 -11 -29 -21 -21 -33 -32 -32 -28 -12 -15 -16 -21 -24 -35 -21 9 58 177 151 134 173 198 191 77 72 81 92 76 102 143 160 226 293 341 319 317 313 342 360 378 352 392